TimeCDT,TemperatureF,Dew PointF,Humidity,Sea Level PressureIn,VisibilityMPH,Wind Direction,Wind SpeedMPH,Gust SpeedMPH,PrecipitationIn,Events,Conditions,WindDirDegrees,DateUTC
12:15 AM,84.2,69.8,62,30.04,10.0,SSE,8.1,-,N/A,,Clear,160,2013-06-25 05:15:00
12:35 AM,82.4,69.8,66,30.04,10.0,SSE,8.1,16.1,N/A,,Clear,160,2013-06-25 05:35:00
12:55 AM,82.4,69.8,66,30.04,10.0,South,8.1,16.1,N/A,,Clear,170,2013-06-25 05:55:00
1:15 AM,82.4,69.8,66,30.03,10.0,South,5.8,-,N/A,,Clear,170,2013-06-25 06:15:00
1:35 AM,82.4,69.8,66,30.02,10.0,South,4.6,-,N/A,,Clear,190,2013-06-25 06:35:00
1:55 AM,80.6,69.8,70,30.02,10.0,South,9.2,-,N/A,,Clear,170,2013-06-25 06:55:00
2:15 AM,80.6,69.8,70,30.02,10.0,South,6.9,19.6,N/A,,Clear,190,2013-06-25 07:15:00
2:35 AM,80.6,71.6,74,30.02,10.0,SSW,8.1,17.3,N/A,,Clear,200,2013-06-25 07:35:00
2:55 AM,80.6,71.6,74,30.01,10.0,South,8.1,-,N/A,,Clear,190,2013-06-25 07:55:00
3:15 AM,80.6,71.6,74,30.01,10.0,South,9.2,16.1,N/A,,Clear,180,2013-06-25 08:15:00
3:35 AM,80.6,71.6,74,30.01,10.0,South,6.9,-,N/A,,Clear,180,2013-06-25 08:35:00
3:55 AM,78.8,71.6,78,30.01,10.0,South,5.8,-,N/A,,Clear,180,2013-06-25 08:55:00
4:15 AM,78.8,71.6,78,30.01,10.0,South,6.9,-,N/A,,Clear,190,2013-06-25 09:15:00
4:35 AM,78.8,71.6,78,30.01,10.0,South,5.8,18.4,N/A,,Clear,190,2013-06-25 09:35:00
4:55 AM,78.8,71.6,78,30.01,10.0,South,5.8,-,N/A,,Clear,180,2013-06-25 09:55:00
5:15 AM,78.8,71.6,78,30.02,10.0,South,6.9,-,N/A,,Clear,190,2013-06-25 10:15:00
5:35 AM,78.8,71.6,78,30.03,10.0,SSW,5.8,-,N/A,,Clear,200,2013-06-25 10:35:00
5:55 AM,78.8,71.6,78,30.03,10.0,SSW,5.8,-,N/A,,Scattered Clouds,200,2013-06-25 10:55:00
6:15 AM,78.8,71.6,78,30.03,10.0,South,6.9,-,N/A,,Scattered Clouds,180,2013-06-25 11:15:00
6:35 AM,78.8,71.6,78,30.04,7.0,SSW,8.1,-,N/A,,Scattered Clouds,200,2013-06-25 11:35:00
6:55 AM,78.8,71.6,78,30.04,7.0,SSW,6.9,-,N/A,,Scattered Clouds,200,2013-06-25 11:55:00
7:15 AM,78.8,71.6,78,30.05,7.0,SSW,8.1,16.1,N/A,,Scattered Clouds,200,2013-06-25 12:15:00
7:35 AM,78.8,71.6,78,30.05,7.0,SSW,5.8,-,N/A,,Mostly Cloudy,200,2013-06-25 12:35:00
7:55 AM,78.8,71.6,78,30.06,7.0,SSW,5.8,-,N/A,,Overcast,200,2013-06-25 12:55:00
8:15 AM,80.6,71.6,74,30.06,7.0,SSW,5.8,-,N/A,,Overcast,210,2013-06-25 13:15:00
8:35 AM,80.6,71.6,74,30.06,10.0,SSW,5.8,-,N/A,,Overcast,210,2013-06-25 13:35:00
8:55 AM,80.6,69.8,70,30.06,7.0,SSW,8.1,-,N/A,,Overcast,210,2013-06-25 13:55:00
9:15 AM,82.4,69.8,66,30.06,10.0,SSW,6.9,-,N/A,,Mostly Cloudy,200,2013-06-25 14:15:00
9:35 AM,82.4,69.8,66,30.05,10.0,SW,6.9,16.1,N/A,,Scattered Clouds,220,2013-06-25 14:35:00
9:55 AM,82.4,69.8,66,30.04,10.0,South,9.2,-,N/A,,Scattered Clouds,190,2013-06-25 14:55:00
10:15 AM,84.2,69.8,62,30.05,10.0,SSW,10.4,17.3,N/A,,Scattered Clouds,200,2013-06-25 15:15:00
10:35 AM,86.0,69.8,58,30.04,10.0,SSW,8.1,-,N/A,,Scattered Clouds,200,2013-06-25 15:35:00
10:55 AM,86.0,69.8,58,30.05,10.0,SSW,9.2,16.1,N/A,,Mostly Cloudy,200,2013-06-25 15:55:00
11:15 AM,86.0,69.8,58,30.05,10.0,WSW,4.6,-,N/A,,Mostly Cloudy,240,2013-06-25 16:15:00
11:35 AM,86.0,68.0,55,30.04,10.0,SW,9.2,-,N/A,,Mostly Cloudy,230,2013-06-25 16:35:00
11:55 AM,87.8,68.0,52,30.04,7.0,SW,4.6,-,N/A,,Mostly Cloudy,220,2013-06-25 16:55:00
12:15 PM,86.0,68.0,55,30.04,10.0,SSW,5.8,-,N/A,,Scattered Clouds,200,2013-06-25 17:15:00
12:35 PM,86.0,68.0,55,30.04,10.0,SSW,5.8,-,N/A,,Scattered Clouds,210,2013-06-25 17:35:00
12:55 PM,87.8,68.0,52,30.03,10.0,South,6.9,-,N/A,,Mostly Cloudy,180,2013-06-25 17:55:00
1:15 PM,89.6,68.0,49,30.03,7.0,SSW,5.8,-,N/A,,Scattered Clouds,200,2013-06-25 18:15:00
1:35 PM,87.8,68.0,52,30.03,10.0,South,4.6,-,N/A,,Scattered Clouds,190,2013-06-25 18:35:00
1:55 PM,89.6,68.0,49,30.02,10.0,SE,4.6,-,N/A,,Scattered Clouds,140,2013-06-25 18:55:00
2:15 PM,89.6,66.2,46,30.03,10.0,South,6.9,-,N/A,,Scattered Clouds,180,2013-06-25 19:15:00
2:35 PM,89.6,68.0,49,30.02,10.0,SSE,5.8,-,N/A,,Mostly Cloudy,160,2013-06-25 19:35:00
2:55 PM,89.6,68.0,49,30.01,7.0,South,3.5,-,N/A,,Scattered Clouds,170,2013-06-25 19:55:00
3:15 PM,91.4,68.0,46,30.01,10.0,Calm,Calm,-,N/A,,Scattered Clouds,0,2013-06-25 20:15:00
3:35 PM,89.6,68.0,49,30.00,10.0,SSW,5.8,-,N/A,,Scattered Clouds,200,2013-06-25 20:35:00
3:55 PM,89.6,68.0,49,29.99,10.0,South,5.8,-,N/A,,Mostly Cloudy,180,2013-06-25 20:55:00
4:15 PM,89.6,68.0,49,29.98,10.0,SSE,4.6,-,N/A,,Scattered Clouds,150,2013-06-25 21:15:00
4:35 PM,89.6,68.0,49,29.98,10.0,SSE,5.8,-,N/A,,Scattered Clouds,160,2013-06-25 21:35:00
4:55 PM,91.4,66.2,43,29.97,10.0,SSE,5.8,-,N/A,,Mostly Cloudy,150,2013-06-25 21:55:00
5:15 PM,89.6,66.2,46,29.96,10.0,SSE,11.5,17.3,N/A,,Scattered Clouds,150,2013-06-25 22:15:00
5:35 PM,89.6,68.0,49,29.96,10.0,South,6.9,-,N/A,,Clear,170,2013-06-25 22:35:00
5:55 PM,89.6,68.0,49,29.95,10.0,South,5.8,-,N/A,,Clear,170,2013-06-25 22:55:00
6:15 PM,89.6,68.0,49,29.94,10.0,SSE,8.1,-,N/A,,Clear,160,2013-06-25 23:15:00
6:35 PM,89.6,68.0,49,29.93,10.0,SSE,4.6,-,N/A,,Clear,150,2013-06-25 23:35:00
6:55 PM,87.8,68.0,52,29.93,10.0,South,3.5,-,N/A,,Clear,170,2013-06-25 23:55:00
7:15 PM,87.8,68.0,52,29.93,10.0,Calm,Calm,-,N/A,,Clear,0,2013-06-26 00:15:00
7:35 PM,86.0,68.0,55,29.93,10.0,SSE,3.5,-,N/A,,Clear,160,2013-06-26 00:35:00
7:55 PM,86.0,68.0,55,29.93,10.0,SSE,5.8,-,N/A,,Clear,150,2013-06-26 00:55:00
8:15 PM,86.0,69.8,58,29.93,10.0,SSE,5.8,-,N/A,,Clear,150,2013-06-26 01:15:00
8:35 PM,86.0,69.8,58,29.92,10.0,SE,4.6,-,N/A,,Clear,140,2013-06-26 01:35:00
8:55 PM,86.0,69.8,58,29.93,10.0,SSE,5.8,-,N/A,,Clear,150,2013-06-26 01:55:00
9:15 PM,86.0,69.8,58,29.93,10.0,SSE,4.6,-,N/A,,Clear,160,2013-06-26 02:15:00
9:35 PM,86.0,69.8,58,29.93,10.0,SSE,6.9,-,N/A,,Clear,150,2013-06-26 02:35:00
9:55 PM,86.0,69.8,58,29.93,10.0,South,5.8,-,N/A,,Clear,180,2013-06-26 02:55:00
10:15 PM,84.2,69.8,62,29.93,10.0,SSE,8.1,-,N/A,,Clear,160,2013-06-26 03:15:00
10:35 PM,84.2,69.8,62,29.93,10.0,SSW,6.9,17.3,N/A,,Clear,210,2013-06-26 03:35:00
10:55 PM,84.2,69.8,62,29.93,10.0,South,9.2,19.6,N/A,,Clear,170,2013-06-26 03:55:00
11:15 PM,84.2,69.8,62,29.93,10.0,SSE,8.1,-,N/A,,Clear,150,2013-06-26 04:15:00
11:35 PM,84.2,69.8,62,29.93,10.0,South,9.2,-,N/A,,Clear,170,2013-06-26 04:35:00
11:55 PM,82.4,69.8,66,29.94,10.0,SSE,5.8,-,N/A,,Clear,160,2013-06-26 04:55:00